SPIRONE

operational
NORAD ID: 66657 Int'l Des: 2025-274 Owner: SEJU Country: KR
LEOCIRCULARRETROGRADESSO

About SPIRONE

Description loading...

Live Position

Loading 3D Globe...

Upcoming Passes

Altitude History

Altitude vs Time

uPlot chart will show altitude changes over time

Two-Line Element Set

1 66657U 25274H 26047.30442571 .00002956 00000-0 28983-3 0 9990
2 66657 97.7434 338.4195 0013865 59.9912 300.2681 14.92927558 12181
Epoch: Feb 16, 2026 • Age: 11 hours

Current Status

Altitude 617.2 km
Velocity 7.54 km/s
Sub-Earth Point -48.61°S, 93.6°E
Launch Date Nov 26, 2025
Age 0.2 years
Type other

Technical Details

Classification Payload
Mass 2.00 kg
Dry Mass 2.00 kg
Total Mass 2.00 kg
Length 0.30 m
Diameter 0.10 m
Span 0.30 m
Shape Box
Manufacturer SEJU
Bus Type Cubesat 2U
Phase Status In Orbit
Owner/State SEJU/KR

Large Constellations

Loading constellations...